www.pogodaiklimat.ru
ПОГОДА в Харлане
Время
и дата
00:35 14.07
00:55 14.07
01:15 14.07
01:35 14.07
01:55 14.07
02:15 14.07
02:35 14.07
02:55 14.07
03:15 14.07
03:35 14.07
03:55 14.07
04:15 14.07
04:35 14.07
04:55 14.07
05:15 14.07
05:35 14.07
05:55 14.07
06:15 14.07
06:35 14.07
06:55 14.07
07:15 14.07
07:35 14.07
07:55 14.07
08:15 14.07
08:35 14.07
08:55 14.07
09:15 14.07
09:35 14.07
09:55 14.07
10:15 14.07
10:35 14.07
10:55 14.07
11:15 14.07
11:35 14.07
11:55 14.07
12:15 14.07
12:35 14.07
12:55 14.07
13:15 14.07
13:35 14.07
13:55 14.07
14:15 14.07
14:35 14.07
14:55 14.07
15:15 14.07
15:35 14.07
15:55 14.07
16:15 14.07
Ветер
(напр.,м/с)
Видим. Явления Облачность Т
(С)
Тd
(С)
f
(%)
Тe
(С)
Тes
(С)
Комфортность P
(гПа)
Po
(гПа)
Тmin
(С)
Tmax
(С)
R
(мм)
R24
(мм)
S
(см)
штиль 0 11 км ясно +21.9 +21.9 100 +29 +29 очень
душно
967.4
штиль 0 11 км ясно +21.6 +21.6 100 +28 +28 очень
душно
967.1 +21.6 +29.5
штиль 0 11 км ясно +21.6 +21.6 100 +28 +28 очень
душно
967.1
штиль 0 11 км ясно +21.3 +21.3 100 +27 +27 душно 967.1
штиль 0 11 км ясно +21.1 +21.1 100 +26 +26 душно 966.8
штиль 0 8 км ясно +20.9 +20.9 100 +26 +26 душно 966.8
штиль 0 8 км ясно +20.8 +20.8 100 +26 +26 душно 966.5
штиль 0 8 км 5/5 30 м +20.6 +20.6 100 +25 +25 комфорт 966.5
штиль 0 8 км 5/5 30 м +20.5 +20.5 100 +25 +25 комфорт 966.8
штиль 0 11 км ясно +20.5 +20.5 100 +25 +25 комфорт 966.8
штиль 0 8 км 5/5 30 м +20.3 +20.3 100 +24 +24 комфорт 966.8
штиль 0 8 км 5/5 30 м +20.1 +20.1 100 +24 +24 комфорт 966.5
штиль 0 6 км 5/5 30 м +20.0 +20.0 100 +23 +23 комфорт 966.5
штиль 0 8 км 5/5 30 м +19.8 +19.8 100 +23 +23 комфорт 966.5
штиль 0 8 км 5/5 30 м +19.7 +19.7 100 +23 +23 комфорт 966.8
штиль 0 6 км 5/5 30 м +19.8 +19.8 100 +23 +23 комфорт 966.8
штиль 0 6 км 5/5 30 м +19.7 +19.7 100 +23 +23 комфорт 966.8
штиль 0 6 км 8/8 30 м +19.9 +19.9 100 +23 +23 комфорт 967.1
штиль 0 5 км 10/10 30 м +20.1 +20.1 100 +24 +24 комфорт 967.1
штиль 0 8 км 5/5 30 м +20.6 +20.6 100 +25 +25 комфорт 967.1 +19.7 +21.6
штиль 0 11 км ясно +21.6 +21.6 100 +28 +31 очень
душно
967.1
штиль 0 16 км ясно +22.4 +21.9 97 +30 +33 очень
душно
967.4
штиль 0 16 км ясно +23.2 +21.7 91 +31 +34 очень
душно
967.4
штиль 0 16 км ясно +24.6 +21.3 82 +31 +39 очень
душно
967.1
штиль 0 16 км ясно +25.2 +21.4 79 +32 +39 очень
душно
967.1
штиль 0 16 км ясно +26.1 +21.4 75 +33 +41 очень
душно
967.1
штиль 0 16 км ясно +27.1 +21.3 71 +34 +48 очень
душно
967.1
штиль 0 11 км ясно +28.1 +21.5 67 +36 +49 очень
душно
967.1
штиль 0 11 км ясно +28.7 +21.0 63 +36 +49 очень
душно
967.1
штиль 0 11 км ясно +30.1 +21.4 60 +38 +58 опасность
солнечного
удара
967.1
штиль 0 16 км ясно +30.7 +21.3 57 +38 +58 опасность
солнечного
удара
967.1
ЮЗ 2 11 км ясно +31.2 +20.8 54 +38 +53 опасность
солнечного
удара
967.1
штиль 0 16 км ясно +31.9 +19.6 48 +38 +62 опасность
солнечного
удара
966.8
ЮЗ 2 16 км ясно +32.6 +19.0 45 +38 +56 опасность
солнечного
удара
966.5
З 3 16 км ясно +32.9 +19.0 44 +38 +53 опасность
солнечного
удара
966.5
штиль 0 11 км ясно +32.9 +18.3 42 +37 +65 опасность
солнечного
удара
966.2
З 3 11 км 5/5 1800 м +33.2 +18.9 43 +38 +47 очень
душно
966.2
ЮЗ 2 11 км 5/5 1800 м +33.2 +18.8 43 +38 +48 очень
душно
965.8 +21.1 +33.5
штиль 0 16 км 5/5 1800 м +33.5 +18.1 40 +38 +51 опасность
солнечного
удара
965.8
штиль 0 16 км 5/5 1800 м +34.0 +18.3 39 +38 +52 опасность
солнечного
удара
965.2
ЮЗ 3 16 км 5/5 1800 м +34.0 +18.1 39 +38 +47 очень
душно
965.2
ЮЗ 4 11 км ясно +34.0 +18.5 40 +39 +51 опасность
солнечного
удара
964.9
ЮЗ 3 11 км ясно +33.8 +18.1 39 +38 +53 опасность
солнечного
удара
964.9
З 3 16 км ясно +34.2 +17.7 38 +38 +53 опасность
солнечного
удара
964.6
З 3 16 км ясно +34.0 +17.5 38 +38 +50 очень
душно
964.2
штиль 0 16 км ясно +34.4 +17.8 37 +38 +58 опасность
солнечного
удара
964.2
З 2 11 км ясно +34.2 +17.9 38 +38 +53 опасность
солнечного
удара
964.2
З 2 11 км ясно +34.0 +17.8 38 +38 +48 очень
душно
964.2
Местоположение метеостанции Tucker-Guthrie Memorial Airport: широта 36.8593 долгота -83.3585 высота над уровнем моря 473 м.
В архиве по умолчанию представлена погода в Харлане за последние 1-2 суток. Обновление информации о фактической погоде в базе происходит ежечасно! Архивные данные за месяц целиком и за предыдущие месяцы Вы можете получить, выбрав интересующий диапазон дат из раскрывающегося списка и нажав кнопку "Ввод!".
Внимание! Архив погоды МЕТАР в базе сайта по станциям, не включенным в климатический монитор, хранится не более 60 дней. Нет смысла пытаться выбрать более раннюю дату.
*Определитесь, кто Вы:
Внимание! Время в таблицах - местное (без учета летнего времени). Для получения всемирного времени необходимо вычесть поправку, которая равна -5 ч.
Смотрите также архив погоды в соседних городах и на ближайших метеорологических станциях:
Партнеры нашего сайта:      
Пояснения к столбцам:
  • Ветер - указаны скорость ветра в м/с - средняя за 10 мин, порывы в срок и между сроками (в фигурных скобках) и направление, откуда дует ветер: С - северный,
  • СВ - северо-восточный, В - восточный, ЮВ - юго-восточный, Ю - южный, ЮЗ - юго-западный, З - западный, СЗ - северо-западный.
  • Видимость - горизонтальная дальность видимости в метрах или километрах. При видимости от 1 до 10 км при отсутствии осадков обычно наблюдается дымка, при ухудшении видимости до 1 км и менее - туман. В сухую погоду видимость может ухудшаться дымом, пылью или мглою.
  • Явления - указаны атмосферные явления, наблюдавшиеся в срок или в последний час перед сроком; фигурными скобками обозначены явления, наблюдавшиеся между сроками (за 1-3 часа до срока); квадратными скобками обозначены град или гололедные отложения с указанием их диаметра в мм.
  • Облачность - указаны через наклонную черту общая и нижняя облачность в баллах и высота нижней границы облаков в метрах; квадратными скобками обозначены формы облаков: Ci - перистые, Cs - перисто-слоистые, Cc - перисто-кучевые, Ac - высококучевые, As - высокослоистые, Sc - слоисто-кучевые, Ns - слоисто-дождевые, Cu - кучевые, Cb - кучево-дождевые. Подробнее классификацию облаков см. в Атласе облаков (PDF).
  • T - Температура воздуха - температура, измеренная на высоте 2 м над землей.
  • Td - Температура точки росы - температура, при понижении до которой содержащийся в воздухе водяной пар достигнет насыщения.
  • f - Относительная влажность воздуха - влажноcть воздуха, измеренная на высоте 2 м над землей.
  • Te - Эффективная температура - температура, которую ощущает одетый по сезону человек в тени. Характеристика душности погоды. При расчете учитывается влияние влажности воздуха и скорости ветра на теплоощущения человека.
  • Tes - Эффективная температура на солнце - температура, которую ощущает человек, с поправкой на солнечный нагрев. Характеристика знойности погоды. Зависит от высоты солнца над горизонтом, облачности и скорости ветра. Ночью, в пасмурную погоду, а также при ветре 12 м/с и более поправка равна нулю.
  • P - Атмосферное давление - приведенное к уровню моря атмосферное давление.
  • Po - Атмосферное давление - измеренное на уровне метеостанции атмосферное давление.
  • Tmin - Минимальная температура - минимум температуры воздуха на высоте 2 м над землей.
  • Tmax - Максимальная температура - максимум температуры воздуха на высоте 2 м над землей.
  • R - Количество осадков - Количество выпавших осадков за период времени, мм. При наведении курсора мыши на число - период времени, за который выпало указанное количество осадков.
  • R24 - Количество осадков - Количество выпавших осадков за 24 часа, мм.
  • S - Снежный покров - Высота снежного покрова, см. При наведении курсора мыши на число - состояние снежного покрова и степень покрытия местности в баллах.